• In Latvia
  • List of Countries
  • For 7 days
  • Water Temperature
  • Satellite Maps
  • Weather Map
  • Weather Widgets
  • user-avatar
    Login

    Hourly Weather Weston

    Today, 20 June, Wednesday

    Time Temperature Precipitation Wind Pressure Humidity
    00:00 +28°C° 0 mm 1 mps 761 mmHg 78%
    01:00 +28°C° 0 mm 1 mps 761 mmHg 79%
    02:00 +28°C° 0 mm 1 mps 760 mmHg 80%
    03:00 +27°C° 0 mm 1 mps 760 mmHg 81%
    04:00 +27°C° 0 mm 1 mps 760 mmHg 82%
    05:00 +26°C° 0 mm 0 mps 760 mmHg 80%
    06:00 +26°C° 0 mm 0 mps 760 mmHg 77%
    07:00 +27°C° 0 mm 0 mps 760 mmHg 75%
    08:00 +28°C° 0 mm 0 mps 760 mmHg 67%
    09:00 +32°C° 0 mm 1 mps 760 mmHg 60%
    10:00 +34°C° 0 mm 1 mps 761 mmHg 52%
    11:00 +35°C° 0 mm 1 mps 760 mmHg 48%
    12:00 +36°C° 0 mm 1 mps 760 mmHg 44%
    13:00 +38°C° 0 mm 2 mps 760 mmHg 40%
    14:00 +37°C° 0.1 mm 2 mps 760 mmHg 42%
    15:00 +37°C° 0.1 mm 3 mps 759 mmHg 45%
    16:00 +36°C° 0.1 mm 3 mps 759 mmHg 47%
    17:00 +35°C° 0.4 mm 3 mps 759 mmHg 53%
    18:00 +34°C° 0.4 mm 3 mps 759 mmHg 59%
    19:00 +31°C° 0.4 mm 3 mps 759 mmHg 65%
    20:00 +31°C° 0.2 mm 3 mps 759 mmHg 67%
    21:00 +30°C° 0.2 mm 3 mps 760 mmHg 70%
    22:00 +29°C° 0.2 mm 3 mps 760 mmHg 72%
    23:00 +29°C° 0.2 mm 3 mps 760 mmHg 73%

    Tomorrow, 21 June, Thursday

    Time Temperature Precipitation Wind Pressure Humidity
    00:00 +29°C° 0.2 mm 3 mps 760 mmHg 74%
    01:00 +29°C° 0.2 mm 3 mps 760 mmHg 75%
    02:00 +28°C° 0.2 mm 3 mps 760 mmHg 76%
    03:00 +28°C° 0.2 mm 3 mps 760 mmHg 78%
    04:00 +28°C° 0.2 mm 3 mps 759 mmHg 79%
    05:00 +28°C° 0 mm 3 mps 760 mmHg 78%
    06:00 +29°C° 0 mm 2 mps 760 mmHg 77%
    07:00 +29°C° 0 mm 2 mps 760 mmHg 76%
    08:00 +31°C° 0 mm 2 mps 760 mmHg 69%
    09:00 +32°C° 0 mm 2 mps 760 mmHg 62%
    10:00 +35°C° 0 mm 2 mps 760 mmHg 55%
    11:00 +35°C° 0.1 mm 2 mps 760 mmHg 53%
    12:00 +36°C° 0.1 mm 3 mps 760 mmHg 52%
    13:00 +36°C° 0.1 mm 3 mps 760 mmHg 50%
    14:00 +35°C° 1.7 mm 3 mps 760 mmHg 55%
    15:00 +34°C° 1.7 mm 4 mps 760 mmHg 59%
    16:00 +33°C° 1.7 mm 4 mps 759 mmHg 64%
    17:00 +33°C° 1.2 mm 3 mps 759 mmHg 66%
    18:00 +31°C° 1.2 mm 3 mps 760 mmHg 68%
    19:00 +31°C° 1.2 mm 2 mps 760 mmHg 70%
    20:00 +30°C° 0.5 mm 2 mps 760 mmHg 72%
    21:00 +30°C° 0.5 mm 2 mps 760 mmHg 75%
    22:00 +29°C° 0.5 mm 2 mps 761 mmHg 77%
    23:00 +29°C° 0 mm 3 mps 761 mmHg 78%

    Day after tomorrow, 22 June, Friday

    Time Temperature Precipitation Wind Pressure Humidity
    00:00 +28°C° 0 mm 3 mps 761 mmHg 79%
    01:00 +28°C° 0 mm 3 mps 761 mmHg 80%
    02:00 +28°C° 0 mm 3 mps 760 mmHg 80%
    03:00 +27°C° 0 mm 3 mps 760 mmHg 81%
    04:00 +27°C° 0 mm 2 mps 760 mmHg 81%
    05:00 +28°C° 0 mm 2 mps 760 mmHg 79%
    06:00 +28°C° 0 mm 2 mps 761 mmHg 78%
    07:00 +28°C° 0 mm 2 mps 761 mmHg 76%
    08:00 +30°C° 0 mm 2 mps 761 mmHg 69%
    09:00 +31°C° 0 mm 2 mps 761 mmHg 63%
    10:00 +34°C° 0 mm 2 mps 762 mmHg 56%
    11:00 +35°C° 0 mm 2 mps 762 mmHg 53%
    12:00 +35°C° 0 mm 2 mps 761 mmHg 51%
    13:00 +36°C° 0 mm 2 mps 761 mmHg 48%
    14:00 +36°C° 0 mm 3 mps 761 mmHg 48%
    15:00 +36°C° 0 mm 3 mps 761 mmHg 48%
    16:00 +36°C° 0 mm 3 mps 760 mmHg 48%
    17:00 +35°C° 0.2 mm 3 mps 760 mmHg 53%
    18:00 +34°C° 0.2 mm 3 mps 761 mmHg 58%
    19:00 +33°C° 0.2 mm 3 mps 761 mmHg 63%
    20:00 +31°C° 0 mm 3 mps 761 mmHg 66%
    21:00 +30°C° 0 mm 3 mps 761 mmHg 70%
    22:00 +29°C° 0 mm 3 mps 762 mmHg 73%
    23:00 +29°C° 0 mm 2 mps 762 mmHg 75%

    23 June, Saturday

    Time Temperature Precipitation Wind Pressure Humidity
    00:00 +28°C° 0 mm 2 mps 761 mmHg 76%
    01:00 +28°C° 0 mm 2 mps 761 mmHg 78%
    02:00 +28°C° 0 mm 2 mps 761 mmHg 79%
    03:00 +27°C° 0 mm 2 mps 761 mmHg 80%
    04:00 +27°C° 0 mm 2 mps 761 mmHg 81%
    05:00 +28°C° 0 mm 1 mps 761 mmHg 79%
    06:00 +28°C° 0 mm 1 mps 761 mmHg 78%
    07:00 +29°C° 0 mm 1 mps 762 mmHg 76%
    08:00 +30°C° 0 mm 1 mps 762 mmHg 68%
    09:00 +32°C° 0 mm 1 mps 762 mmHg 61%
    10:00 +34°C° 0 mm 2 mps 763 mmHg 54%
    11:00 +35°C° 0 mm 1 mps 762 mmHg 50%
    12:00 +36°C° 0 mm 1 mps 762 mmHg 46%
    13:00 +37°C° 0 mm 1 mps 762 mmHg 41%
    14:00 +37°C° 0 mm 2 mps 762 mmHg 44%
    15:00 +37°C° 0 mm 2 mps 761 mmHg 46%
    16:00 +36°C° 0 mm 3 mps 761 mmHg 48%
    17:00 +35°C° 0.8 mm 3 mps 761 mmHg 54%
    18:00 +33°C° 0.8 mm 3 mps 761 mmHg 59%
    19:00 +31°C° 0.8 mm 3 mps 761 mmHg 64%
    20:00 +31°C° 0.9 mm 3 mps 762 mmHg 67%
    21:00 +30°C° 0.9 mm 3 mps 762 mmHg 69%
    22:00 +30°C° 0.9 mm 3 mps 763 mmHg 72%
    23:00 +29°C° 0 mm 3 mps 762 mmHg 73%

    24 June, Sunday

    Time Temperature Precipitation Wind Pressure Humidity
    00:00 +29°C° 0 mm 2 mps 762 mmHg 73%
    01:00 +29°C° 0 mm 2 mps 762 mmHg 74%
    02:00 +29°C° 0 mm 2 mps 762 mmHg 75%
    03:00 +28°C° 0 mm 1 mps 761 mmHg 76%
    04:00 +28°C° 0 mm 1 mps 761 mmHg 77%
    05:00 +29°C° 0 mm 1 mps 762 mmHg 76%
    06:00 +29°C° 0 mm 1 mps 762 mmHg 75%
    07:00 +29°C° 0 mm 1 mps 762 mmHg 73%
    08:00 +31°C° 0 mm 1 mps 762 mmHg 67%
    09:00 +32°C° 0 mm 1 mps 763 mmHg 61%
    10:00 +34°C° 0 mm 1 mps 763 mmHg 55%
    11:00 +35°C° 0.1 mm 2 mps 763 mmHg 52%
    12:00 +36°C° 0.1 mm 3 mps 763 mmHg 49%
    13:00 +37°C° 0.1 mm 4 mps 762 mmHg 45%
    14:00 +36°C° 0.1 mm 4 mps 762 mmHg 48%
    15:00 +36°C° 0.1 mm 4 mps 762 mmHg 50%
    16:00 +35°C° 0.1 mm 4 mps 762 mmHg 53%
    17:00 +34°C° 0.6 mm 4 mps 762 mmHg 57%
    18:00 +33°C° 0.6 mm 4 mps 762 mmHg 62%
    19:00 +31°C° 0.6 mm 3 mps 762 mmHg 67%
    20:00 +31°C° 0 mm 3 mps 763 mmHg 68%
    21:00 +30°C° 0 mm 3 mps 763 mmHg 70%
    22:00 +30°C° 0 mm 3 mps 763 mmHg 72%
    23:00 +29°C° 0.4 mm 3 mps 763 mmHg 74%

    25 June, Monday

    Time Temperature Precipitation Wind Pressure Humidity
    00:00 +29°C° 0.4 mm 3 mps 763 mmHg 76%
    01:00 +29°C° 0.4 mm 3 mps 762 mmHg 78%
    02:00 +29°C° 0.1 mm 3 mps 762 mmHg 79%
    03:00 +29°C° 0.1 mm 3 mps 762 mmHg 79%
    04:00 +28°C° 0.1 mm 3 mps 762 mmHg 80%
    05:00 +29°C° 0.6 mm 3 mps 762 mmHg 79%
    06:00 +29°C° 0.6 mm 3 mps 763 mmHg 79%
    07:00 +30°C° 0.6 mm 3 mps 763 mmHg 78%
    08:00 +31°C° 0.2 mm 3 mps 763 mmHg 72%
    09:00 +33°C° 0.2 mm 3 mps 763 mmHg 65%
    10:00 +34°C° 0.2 mm 3 mps 764 mmHg 59%
    11:00 +35°C° 1.3 mm 3 mps 763 mmHg 58%
    12:00 +35°C° 1.3 mm 3 mps 763 mmHg 57%
    13:00 +35°C° 1.3 mm 4 mps 763 mmHg 56%
    14:00 +35°C° 1.2 mm 3 mps 763 mmHg 57%
    15:00 +34°C° 1.2 mm 3 mps 763 mmHg 58%
    16:00 +34°C° 1.2 mm 2 mps 763 mmHg 59%
    17:00 +32°C° 0.2 mm 2 mps 763 mmHg 62%
    18:00 +32°C° 0.2 mm 2 mps 763 mmHg 65%
    19:00 +31°C° 0.2 mm 3 mps 763 mmHg 67%
    20:00 +31°C° 0 mm 3 mps 763 mmHg 69%
    21:00 +30°C° 0 mm 3 mps 763 mmHg 72%
    22:00 +29°C° 0 mm 3 mps 764 mmHg 74%
    23:00 +29°C° 0 mm 3 mps 763 mmHg 75%
    Show more